Location: Hains Lake
(37.8540°N, 99.8578°W)
Time: 22:03:24
(UTC+00:00)

deb Explorer IX - Pass Details

Date: 19 April 2021
Orbit: 541 x 1098 km, 38.8° (Epoch: 13 May)

Event Time Altitude Azimuth Distance (km) Brightness Sun altitude
Rises 16:33:14 0° 277° (W) 2,930 ? 51.5°
Reaches altitude 10° 16:35:25 10° 278° (W) 2,090 ? 51.9°
Maximum altitude 16:40:18 85° 7° (N) 753 ? 52.6°
Drops below altitude 10° 16:46:06 10° 96° (E) 2,463 ? 53.5°
Sets 16:48:51 0° 97° (E) 3,495 ? 54.0°
